www.pogodaiklimat.ru

АРХИВ ПОГОДЫ в Бостоне

Время (UTC), дата Ветер
(напр.,м/с)
 
Видим.   Явления Облачность Т
(С)
Тd
(С)
f
(%)
Тe
(С)
Тes
(С)
Комфортность

P
(гПа)

Po
(гПа)
Тmin
(С)
Tmax
(С)
R
(мм)
SD
(см)
12:54 16.06 ЮВ  16 км    8/0 4800 м
[средняя верхняя] 
+20.0  +12.2  61  +22  +24  комфорт  1009.5  1008.6         
13:54 16.06 нст  16 км    8/0 4800 м
[средняя верхняя] 
+22.2  +12.2  53  +25  +28  комфорт  1009.3  1008.6         
14:54 16.06 ЮВ  16 км    8/0 5100 м
[средняя верхняя] 
+21.7  +12.2  55  +24  +29  комфорт  1009.0  1008.3         
15:54 16.06 В  16 км    8/0 2100 м
[средняя верхняя] 
+22.8  +11.7  50  +25  +32  комфорт  1009.0  1008.3         
16:54 16.06 В  16 км    8/0 2100 м
[средняя верхняя] 
+23.9  +12.2  48  +26  +32  жарко  1008.5  1007.6         
17:54 16.06 В  16 км    5/2 1500 м
[средняя верхняя] 
+23.9  +9.4  40  +25  +30  комфорт  1008.1  1007.3  +20.0  +25.0     
18:54 16.06 В  16 км    5/2 1350 м
[средняя верхняя] 
+25.0  +9.4  37  +26  +29  жарко  1007.4  1006.6         
19:54 16.06 В  16 км    5/0 2100 м
[средняя верхняя] 
+23.9  +8.9  38  +25  +28  комфорт  1007.2  1006.6         
20:54 16.06 В  16 км    5/0 2100 м
[средняя верхняя] 
+22.2  +10.6  48  +24  +27  комфорт  1007.0  1006.3         
21:54 16.06 В  16 км    5/0 2100 м
[средняя верхняя] 
+23.3  +11.1  46  +26  +28  жарко  1006.4  1005.6         
22:54 16.06 В  16 км    5/2 1950 м
[верхняя] 
+21.7  +12.2  55  +24  +26  комфорт  1006.4  1005.6         
23:54 16.06 В  16 км    5/0 2700 м
[средняя верхняя] 
+20.6  +12.2  59  +23  +23  комфорт  1007.0  1006.3  +20.0  +25.0     
00:54 17.06 СВ  16 км    8/0 2850 м
[средняя верхняя] 
+17.8  +12.8  73  +18  +18    1007.6  1007.0         
01:54 17.06 СВ  16 км    8/0 2850 м
[средняя] 
+17.2  +13.9  81  +17  +17    1008.5  1007.6         
02:54 17.06 СВ  16 км    5/0 2850 м
[средняя] 
+16.7  +13.9  84  +16  +16    1008.9  1008.3         
03:54 17.06 В  16 км    5/0 2850 м
[средняя] 
+16.7  +12.2  75  +16  +16    1009.6  1009.0         
04:54 17.06 В  16 км    5/0 2850 м
[средняя] 
+17.2  +11.1  67  +17  +17    1009.8  1009.0         
05:54 17.06 В  16 км    5/0 3000 м
[средняя] 
+16.1  +11.1  72  +16  +16    1010.4  1009.7  +16.1  +20.6     
06:54 17.06 В  16 км    ясно  +15.6  +11.7  78  +15  +15    1010.7  1010.0         
07:54 17.06 С  16 км    5/0 2100 м
[средняя] 
+15.0  +11.1  77  +14  +14    1010.8  1010.0         
08:54 17.06 С  16 км    5/0 2850 м
[средняя] 
+15.0  +11.1  77  +14  +14    1010.9  1010.3         
09:54 17.06 С  16 км    5/0 2850 м
[средняя верхняя] 
+16.1  +11.1  72  +16  +16    1012.1  1011.4         
10:54 17.06 С  16 км    5/0 3300 м
[средняя верхняя] 
+16.7  +11.7  72  +17  +18    1012.6  1011.7         
11:54 17.06 штиль  16 км    5/0 2700 м
[средняя верхняя] 
+19.4  +11.1  59  +20  +23    1013.3  1012.7  +15.0  +19.4     
12:54 17.06 В  16 км    5/0 2700 м
[средняя верхняя] 
+19.4  +10.6  57  +21  +24  комфорт  1014.3  1013.7         
13:54 17.06 нст  16 км    5/0 2400 м
[средняя верхняя] 
+21.1  +10.0  49  +23  +31  комфорт  1014.8  1014.1         
14:54 17.06 ЮВ  16 км    5/2 1950 м
[верхняя] 
+20.6  +10.6  53  +22  +29  комфорт  1015.2  1014.4         
15:54 17.06 ЮВ  16 км    5/2 1950 м
[верхняя] 
+20.0  +10.6  55  +21  +28  комфорт  1015.6  1014.7         
16:54 17.06 ЮВ  16 км    5/2 1500 м
[верхняя] 
+21.1  +10.0  49  +23  +30  комфорт  1015.6  1014.7         
17:54 17.06 ЮВ  16 км    5/2 1500 м
[верхняя] 
+21.7  +8.9  44  +23  +29  комфорт  1015.5  1014.7  +19.4  +22.2     
18:54 17.06 ЮВ  16 км    5/2 1500 м
[верхняя] 
+22.2  +10.6  48  +24  +29  комфорт  1015.5  1014.7         
19:54 17.06 ЮВ  16 км    5/2 1500 м
[верхняя] 
+21.7  +10.0  47  +23  +27  комфорт  1015.2  1014.4         
20:54 17.06 ЮВ  16 км    5/2 1500 м
[верхняя] 
+22.8  +8.9  41  +24  +27  комфорт  1015.0  1014.4         
21:54 17.06 ЮВ  16 км    5/2 1650 м
[верхняя] 
+22.8  +10.0  44  +25  +28  комфорт  1014.7  1014.1         
22:54 17.06 ЮВ  16 км    2/2 1650 м  +22.8  +8.3  39  +24  +26  комфорт  1015.0  1014.4         
23:54 17.06 ЮЗ  16 км    2/2 1650 м  +22.2  +9.4  44  +24  +24  комфорт  1015.7  1015.1  +20.6  +23.3     
00:01 18.06 ЮЗ  16 км    2/2 1650 м  +23.0  +9.0  41  +24  +24  комфорт    1015.1         
00:25 18.06 Ю  16 км  гроза  5/5 1650 м  +21.0  +9.0  46  +22  +22  комфорт    1015.1         
00:54 18.06 Ю  16 км  ливневый дождь  5/2 1350 м
[средняя] 
+20.6  +9.4  49  +22  +22  комфорт  1016.3  1015.4         
01:54 18.06 Ю  16 км    8/2 1200 м
[средняя] 
+18.9  +10.0  56  +19  +19    1017.7  1016.8         
02:50 18.06 СЗ  16 км  гроза  8/5 1200 м
[средняя] 
+19.0  +10.0  56  +21  +21  комфорт    1018.5         
02:54 18.06 нст  16 км  гроза со слабым дождем  8/5 1200 м
[средняя] 
+19.4  +10.6  57  +21  +21  комфорт  1019.5  1018.8         
03:15 18.06 ЮЗ  11
{17} 
3 км  гроза с сильным дождем  10/5 1260 м
[средняя] 
+18.0  +11.0  64  +17  +17      1017.4         
03:25 18.06 Ю  8
{13} 
14 км  гроза со слабым дождем  10/2 1260 м
[средняя] 
+17.0  +11.0  68  +16  +16      1017.1         
03:33 18.06 ЮЗ  7
{10} 
16 км  гроза со слабым дождем  8/2 1260 м
[средняя] 
+18.0  +11.0  64  +17  +17      1017.4         
03:54 18.06 ЮЗ  16 км  гроза  2/0 3000 м
[средняя] 
+17.2  +11.7  70  +16  +16    1018.2  1017.4         
04:54 18.06 ЮЗ  16 км  гроза  2/0 3300 м
[средняя] 
+17.8  +10.0  60  +17  +17    1018.7  1017.8         
05:54 18.06 ЮЗ  16 км    2/0 3300 м
[средняя] 
+17.2  +8.3  56  +17  +17    1018.9  1018.1  +16.7  +22.8  3.0   

 

Местоположение метеостанции Logan International Airport: широта 42.3606 долгота -71.0106 высота над уровнем моря 6 м.

В архиве по умолчанию представлена погода в Бостоне за последние 1-2 суток. Обновление информации о фактической погоде в базе происходит ежечасно! Архивные данные за месяц целиком и за предыдущие месяцы Вы можете получить, выбрав интересующий диапазон дат из раскрывающегося списка и нажав кнопку "Ввод!".

Внимание! Архив погоды МЕТАР в базе сайта в настоящее время начинается c 1 января 2013 г. Нет смысла пытаться выбрать более раннюю дату.

Внимание! Время в таблицах - всемирное. Для получения местного времени необходимо прибавить поправку, которая в Бостоне равна -5 ч.

Ветер - указаны скорость ветра в м/с и направление, откуда дует ветер: С - северный, СВ - северо-восточный, В - восточный, ЮВ - юго-восточный, Ю - южный, ЮЗ - юго-западный, З - западный, СЗ - северо-западный.
Видимость - горизонтальная дальность видимости в метрах или километрах. При видимости от 1 до 10 км при отсутствии осадков обычно наблюдается дымка, при ухудшении видимости до 1 км и менее - туман. В сухую погоду видимость может ухудшаться дымом, пылью или мглою.
Атмосферные явления - указаны явления, наблюдавшиеся в указанный момент времени.
Облачность - указаны через наклонную черту верхняя и нижняя облачность в баллах и высота нижней границы облаков в метрах. Внимание: облачность, как и прочие метеорологические величины в США измеряются автоматическими метеостанциями. Указанные значения в баллах носят условный характер и показывают процент времени, в течение которого, в среднем, лазерный луч высотомера отражался от облаков обратно.
T - Температура воздуха - температура, измеренная на высоте 2 м над землей.
Td - Температура точки росы - температура, при понижении до которой содержащийся в воздухе водяной пар достигнет насыщения.
f - Относительная влажность воздуха - влажноcть воздуха, измеренная на высоте 2 м над землей.
Te - Эффективная температура - температура, которую ощущает одетый по сезону человек в тени. Характеристика душности погоды. При расчете учитывается влияние влажности воздуха и скорости ветра на теплоощущения человека.
Tes - Эффективная температура на солнце - температура, которую ощущает человек, с поправкой на солнечный нагрев. Характеристика знойности погоды. Зависит от высоты солнца над горизонтом, облачности и скорости ветра. Ночью, в пасмурную погоду, а также при ветре 12 м/с и более поправка равна нулю.
P - Атмосферное давление - приведенное к уровню моря атмосферное давление.
Po - Атмосферное давление - измеренное на уровне метеостанции атмосферное давление.
Tmin - Минимальная температура - минимум температуры воздуха на высоте 2 м над землей.
Tmax - Максимальная температура - максимум температуры воздуха на высоте 2 м над землей.
R - Количество осадков - Количество выпавших осадков за 3 или 6 часов, мм.
SD - Снежный покров - Высота снежного покрова, см.